Overview Statistics Trail Chart Weather Telemetry Raw packets
 

This is the latest recevied weather packets stored in our database for station/object XE2RCS-1. If no packets are shown the sender has not sent any weather packets the latest 10 day(s).

<< 1 2 3 4 5 6 7 >>
Time Temp. Humidity Pressure Rain* Wind** Luminosity Snow
1788636136 26.11° C 44% 1013 hPa 0 mm - - -
1788635536 27.22° C 42% 1013 hPa 0 mm - - -
1788634935 27.78° C 40% 1013 hPa 0 mm - - -
1788634334 27.78° C 41% 1013 hPa 0 mm - - -
1788633733 27.22° C 38% 1014 hPa 0 mm - - -
1788633132 27.22° C 38% 1014 hPa 0 mm - - -
1788632532 27.22° C 39% 1014 hPa 0 mm - - -
1788631931 27.78° C 38% 1014 hPa 0 mm - - -
1788631330 27.78° C 39% 1014 hPa 0 mm - - -
1788630730 27.78° C 40% 1014 hPa 0 mm - - -
1788630129 26.67° C 41% 1014 hPa 0 mm - - -
1788629558 26.67° C 41% 1014 hPa 0 mm - - -
1788628928 26.67° C 40% 1014 hPa 0 mm - - -
1788628327 26.67° C 41% 1014 hPa 0 mm - - -
1788627727 26.67° C 40% 1014 hPa 0 mm - - -
1788627126 26.11° C 43% 1014 hPa 0 mm - - -
1788626526 25.56° C 45% 1014 hPa 0 mm - - -
1788625925 25.56° C 46% 1014 hPa 0 mm - - -
1788625324 25° C 47% 1015 hPa 0 mm - - -
1788624724 25° C 48% 1015 hPa 0 mm - - -
1788624123 25° C 49% 1015 hPa 0 mm - - -
1788623522 24.44° C 50% 1015 hPa 0 mm - - -
1788622922 24.44° C 51% 1015 hPa 0 mm - - -
1788622321 24.44° C 54% 1015 hPa 0 mm - - -
1788621721 23.89° C 55% 1015 hPa 0 mm - - -

* Rain latest hour (hover to see other rain measurements)
** Current wind speed in m/s (hover to see current wind gust speed)